• In Deutschland
  • Länderverzeichnis
  • Für 7 Tage
  • Wassertemperatur
  • Satellitenkarten
  • Wetterkarte
  • Widgets
  • user-avatar
    Anmelden

    Stündliche Wetter Sylchet

    Heute, 18 Oktober, Mittwoch

    Zeit Temperatur Niederschläge Wind Luftdruck Luftfeuchtigkeit
    00:00 +28°C° 0 mm 1 m/S 753 mmHg 79%
    01:00 +28°C° 0,3 mm 1 m/S 753 mmHg 80%
    02:00 +28°C° 0,3 mm 1 m/S 753 mmHg 81%
    03:00 +27°C° 0,3 mm 1 m/S 753 mmHg 82%
    04:00 +27°C° 0,1 mm 1 m/S 753 mmHg 83%
    05:00 +27°C° 0,1 mm 1 m/S 753 mmHg 84%
    06:00 +27°C° 0 mm 1 m/S 754 mmHg 85%
    07:00 +28°C° 0,7 mm 1 m/S 754 mmHg 81%
    08:00 +30°C° 0,7 mm 2 m/S 755 mmHg 78%
    09:00 +31°C° 0,7 mm 2 m/S 755 mmHg 74%
    10:00 +34°C° 0 mm 2 m/S 754 mmHg 68%
    11:00 +35°C° 0 mm 2 m/S 754 mmHg 62%
    12:00 +36°C° 0 mm 2 m/S 754 mmHg 58%
    13:00 +36°C° 0 mm 2 m/S 753 mmHg 57%
    14:00 +36°C° 0 mm 1 m/S 753 mmHg 56%
    15:00 +36°C° 0 mm 1 m/S 752 mmHg 55%
    16:00 +34°C° 0 mm 1 m/S 752 mmHg 59%
    17:00 +33°C° 0 mm 1 m/S 752 mmHg 64%
    18:00 +31°C° 0 mm 1 m/S 753 mmHg 71%
    19:00 +31°C° 0,4 mm 1 m/S 753 mmHg 73%
    20:00 +30°C° 0,4 mm 1 m/S 754 mmHg 76%
    21:00 +30°C° 0,4 mm 1 m/S 754 mmHg 78%
    22:00 +29°C° 1,7 mm 1 m/S 755 mmHg 80%
    23:00 +29°C° 1,7 mm 1 m/S 755 mmHg 82%

    Morgen, 19 Oktober, Donnerstag

    Zeit Temperatur Niederschläge Wind Luftdruck Luftfeuchtigkeit
    00:00 +28°C° 1,7 mm 1 m/S 755 mmHg 84%
    01:00 +28°C° 0,9 mm 1 m/S 755 mmHg 84%
    02:00 +28°C° 0,9 mm 1 m/S 755 mmHg 84%
    03:00 +28°C° 0,9 mm 1 m/S 755 mmHg 84%
    04:00 +28°C° 0,2 mm 1 m/S 755 mmHg 85%
    05:00 +27°C° 0,2 mm 1 m/S 755 mmHg 86%
    06:00 +27°C° 0,2 mm 1 m/S 755 mmHg 87%
    07:00 +28°C° 0,2 mm 2 m/S 756 mmHg 86%
    08:00 +29°C° 0,2 mm 2 m/S 756 mmHg 84%
    09:00 +30°C° 0,2 mm 2 m/S 756 mmHg 82%
    10:00 +31°C° 0,8 mm 2 m/S 756 mmHg 77%
    11:00 +32°C° 0,8 mm 2 m/S 755 mmHg 72%
    12:00 +34°C° 0,8 mm 2 m/S 755 mmHg 67%
    13:00 +34°C° 0,1 mm 2 m/S 754 mmHg 67%
    14:00 +34°C° 0,1 mm 2 m/S 754 mmHg 67%
    15:00 +34°C° 0,1 mm 2 m/S 753 mmHg 66%
    16:00 +32°C° 0,9 mm 1 m/S 753 mmHg 72%
    17:00 +31°C° 0,9 mm 1 m/S 753 mmHg 78%
    18:00 +29°C° 0,9 mm 1 m/S 754 mmHg 83%
    19:00 +29°C° 0,5 mm 1 m/S 754 mmHg 84%
    20:00 +29°C° 0,5 mm 1 m/S 755 mmHg 85%
    21:00 +28°C° 0,5 mm 1 m/S 756 mmHg 85%
    22:00 +28°C° 0,7 mm 1 m/S 756 mmHg 85%
    23:00 +28°C° 0,7 mm 1 m/S 756 mmHg 85%

    übermorgen, 20 Oktober, Freitag

    Zeit Temperatur Niederschläge Wind Luftdruck Luftfeuchtigkeit
    00:00 +26°C° 0,7 mm 0 m/S 756 mmHg 86%
    01:00 +28°C° 0 mm 1 m/S 756 mmHg 86%
    02:00 +27°C° 0 mm 1 m/S 755 mmHg 87%
    03:00 +27°C° 0 mm 1 m/S 755 mmHg 87%
    04:00 +27°C° 0,1 mm 1 m/S 755 mmHg 88%
    05:00 +27°C° 0,1 mm 1 m/S 755 mmHg 89%
    06:00 +27°C° 0,1 mm 1 m/S 755 mmHg 90%
    07:00 +27°C° 1,3 mm 1 m/S 756 mmHg 89%
    08:00 +28°C° 1,3 mm 1 m/S 756 mmHg 88%
    09:00 +28°C° 1,3 mm 1 m/S 757 mmHg 86%
    10:00 +28°C° 2,1 mm 2 m/S 757 mmHg 87%
    11:00 +28°C° 2,1 mm 2 m/S 756 mmHg 88%
    12:00 +28°C° 2,1 mm 2 m/S 756 mmHg 89%
    13:00 +27°C° 1,7 mm 2 m/S 756 mmHg 90%
    14:00 +27°C° 1,7 mm 2 m/S 755 mmHg 91%
    15:00 +27°C° 1,7 mm 2 m/S 755 mmHg 92%
    16:00 +27°C° 1,7 mm 2 m/S 755 mmHg 93%
    17:00 +27°C° 1,7 mm 2 m/S 755 mmHg 93%
    18:00 +26°C° 1,7 mm 2 m/S 755 mmHg 93%
    19:00 +26°C° 2,2 mm 2 m/S 756 mmHg 94%
    20:00 +26°C° 2,2 mm 2 m/S 756 mmHg 94%
    21:00 +26°C° 2,2 mm 2 m/S 757 mmHg 95%
    22:00 +26°C° 1,9 mm 2 m/S 756 mmHg 95%
    23:00 +26°C° 1,9 mm 2 m/S 756 mmHg 96%

    21 Oktober, Samstag

    Zeit Temperatur Niederschläge Wind Luftdruck Luftfeuchtigkeit
    00:00 +26°C° 1,9 mm 2 m/S 756 mmHg 96%
    01:00 +25°C° 0,9 mm 2 m/S 755 mmHg 96%
    02:00 +25°C° 0,9 mm 2 m/S 755 mmHg 96%
    03:00 +25°C° 0,9 mm 3 m/S 754 mmHg 96%
    04:00 +25°C° 0,3 mm 3 m/S 754 mmHg 96%
    05:00 +25°C° 0,3 mm 3 m/S 754 mmHg 96%
    06:00 +25°C° 0,3 mm 3 m/S 754 mmHg 96%
    07:00 +26°C° 0,2 mm 3 m/S 755 mmHg 94%
    08:00 +26°C° 0,2 mm 3 m/S 755 mmHg 91%
    09:00 +27°C° 0,2 mm 4 m/S 756 mmHg 89%
    10:00 +28°C° 1,1 mm 3 m/S 755 mmHg 88%
    11:00 +28°C° 1,1 mm 3 m/S 754 mmHg 87%
    12:00 +28°C° 1,1 mm 3 m/S 754 mmHg 86%
    13:00 +28°C° 2 mm 3 m/S 753 mmHg 88%
    14:00 +27°C° 2 mm 3 m/S 752 mmHg 90%
    15:00 +27°C° 2 mm 3 m/S 752 mmHg 92%
    16:00 +27°C° 1,3 mm 3 m/S 752 mmHg 92%
    17:00 +27°C° 1,3 mm 3 m/S 752 mmHg 93%
    18:00 +26°C° 1,3 mm 2 m/S 752 mmHg 94%
    19:00 +26°C° 1,4 mm 3 m/S 753 mmHg 94%
    20:00 +26°C° 1,4 mm 3 m/S 754 mmHg 95%
    21:00 +26°C° 1,4 mm 3 m/S 754 mmHg 95%
    22:00 +26°C° 0,9 mm 3 m/S 754 mmHg 95%
    23:00 +26°C° 0,9 mm 3 m/S 754 mmHg 95%

    22 Oktober, Sonntag

    Zeit Temperatur Niederschläge Wind Luftdruck Luftfeuchtigkeit
    00:00 +25°C° 0,9 mm 3 m/S 753 mmHg 95%
    01:00 +25°C° 0,9 mm 3 m/S 753 mmHg 95%
    02:00 +25°C° 0,9 mm 3 m/S 753 mmHg 95%
    03:00 +25°C° 0,9 mm 3 m/S 752 mmHg 95%
    04:00 +25°C° 0,8 mm 4 m/S 752 mmHg 95%
    05:00 +25°C° 0,8 mm 4 m/S 753 mmHg 95%
    06:00 +25°C° 0,8 mm 4 m/S 753 mmHg 94%
    07:00 +26°C° 0,8 mm 4 m/S 753 mmHg 93%
    08:00 +26°C° 0,8 mm 4 m/S 754 mmHg 92%
    09:00 +26°C° 0,8 mm 4 m/S 754 mmHg 91%
    10:00 +26°C° 1,2 mm 4 m/S 754 mmHg 91%
    11:00 +27°C° 1,2 mm 4 m/S 754 mmHg 90%
    12:00 +27°C° 1,2 mm 3 m/S 753 mmHg 90%
    13:00 +27°C° 1,4 mm 3 m/S 753 mmHg 91%
    14:00 +27°C° 1,4 mm 3 m/S 752 mmHg 92%
    15:00 +26°C° 1,4 mm 3 m/S 752 mmHg 92%
    16:00 +26°C° 1,2 mm 3 m/S 752 mmHg 93%
    17:00 +26°C° 1,2 mm 3 m/S 752 mmHg 93%
    18:00 +26°C° 1,2 mm 3 m/S 752 mmHg 94%
    19:00 +26°C° 1 mm 3 m/S 753 mmHg 94%
    20:00 +26°C° 1 mm 3 m/S 753 mmHg 94%
    21:00 +25°C° 1 mm 3 m/S 754 mmHg 94%
    22:00 +25°C° 0,6 mm 3 m/S 754 mmHg 93%
    23:00 +25°C° 0,6 mm 3 m/S 754 mmHg 93%

    23 Oktober, Montag

    Zeit Temperatur Niederschläge Wind Luftdruck Luftfeuchtigkeit
    00:00 +25°C° 0,6 mm 3 m/S 754 mmHg 93%
    01:00 +25°C° 0,4 mm 3 m/S 753 mmHg 93%
    02:00 +25°C° 0,4 mm 3 m/S 753 mmHg 93%
    03:00 +25°C° 0,4 mm 3 m/S 753 mmHg 93%
    04:00 +25°C° 0,3 mm 3 m/S 753 mmHg 93%
    05:00 +25°C° 0,3 mm 3 m/S 754 mmHg 93%
    06:00 +25°C° 0,3 mm 3 m/S 754 mmHg 92%
    07:00 +25°C° 0,2 mm 3 m/S 754 mmHg 91%
    08:00 +26°C° 0,2 mm 3 m/S 755 mmHg 90%
    09:00 +26°C° 0,2 mm 2 m/S 755 mmHg 89%
    10:00 +27°C° 0,2 mm 3 m/S 755 mmHg 86%
    11:00 +28°C° 0,2 mm 3 m/S 755 mmHg 82%
    12:00 +29°C° 0,2 mm 3 m/S 754 mmHg 78%
    13:00 +30°C° 0,3 mm 2 m/S 754 mmHg 76%
    14:00 +30°C° 0,3 mm 2 m/S 753 mmHg 75%
    15:00 +31°C° 0,3 mm 2 m/S 752 mmHg 73%
    16:00 +30°C° 0,1 mm 2 m/S 753 mmHg 77%
    17:00 +29°C° 0,1 mm 2 m/S 753 mmHg 80%
    18:00 +27°C° 0,1 mm 1 m/S 753 mmHg 84%
    19:00 +27°C° 0 mm 1 m/S 754 mmHg 84%
    20:00 +27°C° 0 mm 1 m/S 754 mmHg 84%
    21:00 +26°C° 0 mm 1 m/S 755 mmHg 84%
    22:00 +26°C° 0 mm 1 m/S 755 mmHg 85%
    23:00 +26°C° 0 mm 1 m/S 755 mmHg 86%
    Mehr zeigen